Wind_Speed
14 14 14 15 16 17 17 17 18 19 20 19 20 21 21 21 20 20 20 19 18 19 19 19 19 19 18 18 17 17 17 16 16 16 17 17 16 17 17 16 15 15 15 15
14 14 15 16 17 17 18 17 17 18 19 19 19 20 20 20 20 19 19 19 18 18 19 19 20 19 18 18 18 17 17 17 16 16 16 16 16 16 17 16 17 16 16 16
15 15 16 17 17 17 17 17 17 18 19 19 19 19 19 18 19 19 18 18 18 19 19 19 19 19 19 19 18 18 18 18 17 16 16 16 17 17 17 17 17 17 17 17
17 17 17 17 17 16 16 16 16 17 18 18 19 18 19 19 19 19 18 18 17 18 17 18 18 18 19 19 19 19 19 18 18 17 17 17 17 17 17 17 17 18 18 18
18 18 18 18 18 18 17 18 17 17 18 19 18 18 18 18 18 17 17 17 17 16 17 17 18 19 19 19 20 19 19 18 18 18 18 18 18 18 17 17 17 18 18 19
19 19 19 18 19 19 18 18 18 18 18 18 17 17 17 16 17 17 17 16 16 17 17 18 18 19 19 19 19 19 19 19 19 18 18 18 18 18 17 17 17 17 18 19
19 19 19 19 19 20 19 18 17 17 17 17 17 18 17 17 17 17 17 16 16 17 18 18 18 19 19 19 19 19 19 19 19 18 18 18 18 18 18 17 17 18 18 17
20 20 20 19 19 20 20 18 18 18 16 16 17 18 18 18 17 16 17 16 17 17 18 18 18 18 18 19 18 18 18 18 18 18 18 18 18 18 18 18 18 17 17 17
20 20 20 19 18 19 19 18 18 19 18 17 17 18 18 18 17 17 17 17 17 17 18 18 18 18 18 18 18 18 17 17 18 18 18 18 18 18 18 18 18 19 19 19
22 22 20 20 19 19 19 19 19 18 18 18 18 18 18 19 18 18 17 17 17 17 17 17 18 18 18 18 18 17 17 17 17 17 18 18 17 18 18 18 19 19 18 19
22 22 21 21 20 19 19 20 19 19 19 19 19 18 20 19 19 18 17 17 17 17 18 18 18 19 19 18 18 18 17 17 18 18 18 18 18 18 19 19 19 18 19 19
22 22 22 21 21 20 20 20 19 19 20 20 20 20 21 20 19 19 18 17 17 18 18 18 19 19 19 20 19 19 19 18 18 18 19 18 19 19 19 19 19 19 20 20
23 23 23 22 22 22 22 21 21 21 20 21 21 21 22 21 20 20 19 18 17 18 19 18 19 19 20 20 20 20 20 20 19 19 19 19 19 19 19 20 20 20 20 21
25 25 24 23 22 21 22 22 22 22 21 22 22 21 22 21 21 20 20 19 18 19 19 19 19 19 20 21 21 21 21 21 20 19 19 19 19 19 19 20 21 21 21 22
26 27 26 25 25 24 23 23 23 23 23 22 22 22 21 21 21 20 21 20 19 19 19 19 19 19 19 20 21 20 20 19 19 19 19 19 19 20 20 20 21 22 23 23
26 27 27 26 26 25 24 24 24 24 24 23 23 23 22 22 21 21 21 21 20 20 20 20 19 19 19 19 19 19 19 18 18 19 19 19 19 20 21 22 23 24 24 23
25 25 25 25 24 24 25 24 24 24 24 23 23 23 22 21 20 20 20 20 20 19 19 19 18 18 18 17 17 18 18 18 18 19 19 19 20 21 21 22 23 23 22 21
24 24 24 24 23 24 23 23 23 23 23 22 22 22 22 21 20 20 20 20 19 19 18 18 17 17 17 17 17 18 18 19 19 19 20 20 20 21 21 22 22 22 22 22
25 24 25 24 24 24 24 22 22 23 24 22 21 21 21 21 21 20 20 20 19 18 18 17 18 17 17 18 18 19 20 20 21 20 21 21 22 22 21 22 22 21 22 21
24 24 24 24 24 24 25 23 23 23 24 23 22 22 23 22 22 21 21 20 19 19 19 18 18 18 18 18 19 19 21 21 22 22 22 22 22 22 22 22 21 21 22 23
23 24 24 24 25 26 25 24 23 24 24 23 23 23 24 24 23 22 22 22 21 20 20 19 18 18 19 19 20 20 22 22 23 23 22 22 22 22 22 22 21 22 22 23
22 23 23 24 25 26 25 25 24 25 24 23 23 23 23 23 23 22 22 22 22 21 20 20 21 21 20 21 22 22 22 23 23 22 22 23 23 23 23 23 22 23 24 24
22 22 23 24 24 24 24 24 23 23 23 23 23 23 23 22 23 22 22 23 23 23 22 22 22 23 22 22 22 23 23 23 23 22 23 23 24 24 24 24 23 23 24 23
21 21 22 23 23 24 24 24 23 23 22 22 22 23 22 23 22 22 23 22 22 22 22 22 22 22 22 23 22 23 23 23 23 23 23 23 23 23 23 23 23 23 23 23
20 21 21 22 23 24 24 24 23 22 22 22 22 22 22 23 23 24 24 23 23 22 22 22 22 22 22 22 23 24 23 23 23 23 23 23 23 23 22 23 23 23 23 23
19 19 20 21 21 22 22 22 22 22 22 22 23 23 24 23 23 23 23 23 24 24 24 23 23 23 22 23 24 24 23 23 23 23 23 23 23 23 23 24 23 23 23 24
Wind_Direction
256 256 258 261 262 260 264 269 272 273 275 274 272 272 271 270 269 270 270 269 270 270 271 274 277 281 281 281 284 285 285 284 275 267 265 262 261 259 256 256 255 253 253 256
257 256 258 260 263 266 270 274 274 273 274 273 275 273 272 270 268 268 266 269 269 267 269 272 276 278 278 278 280 282 284 281 273 266 263 261 260 264 258 257 258 255 255 256
258 258 259 263 266 271 273 274 272 274 275 274 276 275 273 272 269 269 267 268 268 267 268 270 273 275 276 274 276 280 282 278 272 267 263 261 262 263 259 261 259 256 255 255
258 259 261 264 267 270 272 271 272 275 276 277 277 280 278 273 270 270 268 267 269 268 268 270 271 272 274 273 274 278 278 275 271 267 264 263 262 262 260 260 260 256 256 255
259 261 263 265 267 268 269 270 273 276 277 277 278 279 280 276 273 271 268 266 267 265 266 270 271 271 271 271 273 275 276 273 270 268 264 262 259 259 258 259 260 259 256 253
261 262 263 264 266 267 269 273 276 279 280 281 280 277 278 277 275 272 269 268 265 265 267 269 270 270 271 272 272 274 275 273 269 266 263 262 259 255 254 257 259 258 256 253
265 266 267 266 266 268 268 271 276 278 278 281 280 277 278 277 275 273 272 270 269 268 268 268 270 271 273 275 274 274 273 271 266 263 261 258 255 251 252 255 258 260 258 258
262 264 266 266 265 267 267 267 270 275 277 277 277 280 281 281 278 274 270 270 270 269 269 269 271 272 273 273 272 271 269 268 263 260 257 254 251 252 255 257 260 259 258 260
259 261 263 264 263 265 268 269 271 273 272 273 275 280 283 283 281 277 272 269 268 267 268 270 272 272 271 270 271 270 268 267 261 259 256 253 252 255 258 260 262 260 260 260
257 259 261 262 263 264 266 269 271 271 271 273 277 280 282 285 283 278 277 275 271 268 267 268 272 272 270 270 269 271 269 266 263 261 256 253 254 256 260 264 265 261 260 261
256 257 259 260 260 264 265 267 269 271 270 274 276 278 281 280 281 278 276 277 276 274 271 269 270 269 267 265 267 268 266 264 262 260 256 256 259 261 263 265 263 262 263 264
253 255 256 258 261 263 265 268 270 273 275 276 276 277 278 279 278 276 275 276 276 275 274 272 270 269 265 265 266 264 264 264 261 260 258 260 263 263 262 262 265 266 267 268
252 254 256 258 261 262 262 262 265 269 270 272 275 278 278 277 277 274 273 275 275 274 273 273 273 270 267 266 266 266 264 264 262 260 259 264 265 265 264 265 267 267 269 270
254 255 255 255 258 261 262 262 262 264 267 271 273 274 273 276 276 275 272 272 273 274 274 274 273 270 266 265 266 266 263 262 262 262 263 266 266 265 264 266 267 267 269 272
253 256 257 256 257 258 259 260 262 263 266 269 270 271 272 273 274 275 275 272 272 272 274 274 272 271 267 265 265 262 263 262 261 264 265 266 265 264 265 266 266 268 271 272
253 255 257 258 255 256 258 259 260 263 266 268 268 270 273 275 275 276 276 275 273 271 273 272 271 271 269 267 264 261 262 263 264 264 263 265 267 266 267 268 269 271 272 271
255 255 256 256 255 256 258 259 261 263 266 266 266 267 269 272 274 274 274 274 274 272 272 271 270 268 268 264 264 262 262 266 267 268 267 267 267 268 269 270 270 271 272 269
257 256 255 255 255 255 259 261 262 264 265 265 265 266 267 268 270 274 273 273 272 271 270 267 268 267 263 265 265 264 264 265 268 269 271 272 270 269 268 269 270 271 270 268
256 257 255 255 256 258 260 261 261 263 265 265 263 263 265 266 267 270 270 269 266 266 268 267 266 267 266 266 267 267 267 267 269 271 273 273 271 270 269 270 271 270 269 268
255 255 255 255 256 256 261 264 265 266 266 265 264 265 266 266 266 267 267 267 263 262 262 265 264 265 268 268 268 268 268 268 269 271 272 271 271 270 269 269 270 269 269 269
256 256 256 256 258 258 260 261 264 265 267 267 266 266 266 266 266 266 266 265 265 261 259 261 264 265 268 268 269 270 270 269 269 269 270 270 271 272 271 270 270 270 270 270
255 255 255 255 255 256 259 261 261 263 266 267 267 267 266 265 264 265 265 265 264 262 262 263 264 265 266 268 268 270 269 269 268 268 269 270 271 273 273 271 272 273 272 271
253 252 252 252 253 255 259 262 263 262 265 266 266 265 264 263 262 262 263 263 263 264 264 262 264 266 266 266 267 267 269 269 268 268 270 270 270 272 273 271 271 273 273 272
255 252 252 253 253 256 259 262 262 262 262 262 263 263 263 262 260 260 261 261 263 265 265 266 266 269 269 269 268 270 270 269 268 269 270 270 270 271 271 271 272 273 273 272
257 255 253 254 256 257 258 260 260 261 260 261 262 263 263 262 260 259 259 261 263 264 262 265 267 268 269 268 269 269 269 268 268 268 269 272 271 270 271 272 272 272 274 275
258 257 255 255 257 258 258 261 263 262 263 262 263 264 262 261 260 259 260 260 262 262 263 263 264 267 269 269 270 271 270 268 268 269 270 271 270 269 270 272 274 274 274 275
Height
5849 5850 5851 5851 5851 5852 5852 5852 5852 5852 5850 5850 5849 5849 5848 5848 5847 5847 5847 5847 5847 5847 5847 5847 5846 5845 5845 5844 5843 5841 5840 5839 5838 5838 5839 5839 5840 5840 5841 5842 5842 5843 5844 5844
5846 5847 5847 5846 5847 5847 5847 5848 5848 5847 5846 5845 5844 5844 5843 5842 5842 5841 5842 5842 5842 5842 5842 5842 5841 5841 5840 5840 5839 5838 5836 5835 5835 5834 5835 5836 5836 5837 5837 5838 5839 5839 5840 5840
5842 5843 5842 5842 5843 5843 5843 5843 5843 5842 5841 5840 5840 5840 5839 5838 5837 5836 5837 5837 5837 5837 5837 5837 5837 5836 5836 5835 5835 5833 5832 5831 5831 5831 5831 5832 5832 5833 5833 5834 5835 5836 5836 5837
5837 5838 5838 5838 5839 5839 5839 5839 5838 5838 5837 5837 5837 5836 5835 5833 5832 5832 5832 5831 5832 5832 5832 5832 5832 5832 5831 5831 5830 5829 5829 5828 5827 5828 5828 5828 5828 5828 5829 5830 5831 5831 5832 5833
5833 5834 5834 5834 5835 5834 5835 5834 5834 5833 5833 5833 5832 5831 5831 5828 5828 5827 5826 5826 5826 5827 5828 5828 5828 5828 5827 5826 5826 5825 5824 5823 5823 5823 5823 5824 5824 5825 5825 5826 5826 5826 5827 5828
5829 5829 5829 5829 5829 5829 5829 5830 5829 5829 5829 5829 5828 5827 5826 5825 5823 5822 5821 5821 5821 5822 5823 5823 5823 5823 5822 5822 5821 5820 5820 5819 5818 5819 5819 5819 5819 5820 5821 5821 5822 5822 5823 5823
5824 5824 5824 5824 5824 5824 5825 5826 5827 5826 5826 5826 5824 5822 5822 5820 5818 5818 5817 5817 5817 5818 5818 5818 5818 5818 5817 5817 5816 5815 5815 5814 5814 5814 5814 5814 5815 5816 5816 5817 5817 5818 5819 5819
5819 5820 5819 5819 5819 5819 5820 5821 5823 5823 5822 5822 5819 5817 5817 5815 5814 5813 5813 5813 5813 5813 5813 5813 5813 5813 5813 5812 5811 5811 5810 5809 5809 5809 5810 5810 5811 5811 5812 5813 5813 5814 5814 5815
5814 5815 5814 5814 5814 5815 5815 5816 5817 5817 5816 5816 5815 5813 5812 5810 5810 5809 5808 5808 5808 5808 5808 5808 5808 5808 5808 5807 5807 5806 5806 5805 5805 5805 5806 5806 5807 5807 5808 5808 5809 5809 5810 5810
5808 5809 5809 5809 5810 5810 5811 5811 5811 5811 5811 5811 5811 5809 5809 5806 5805 5805 5804 5803 5803 5803 5802 5802 5802 5802 5802 5802 5802 5802 5801 5801 5801 5801 5801 5802 5803 5803 5804 5804 5804 5805 5805 5805
5802 5803 5804 5804 5804 5805 5806 5806 5805 5806 5805 5806 5806 5807 5803 5801 5800 5800 5799 5798 5798 5797 5797 5797 5797 5796 5796 5797 5797 5797 5797 5797 5797 5797 5797 5798 5798 5799 5799 5800 5800 5800 5800 5800
5795 5796 5797 5799 5799 5799 5800 5800 5800 5801 5800 5799 5800 5802 5797 5795 5795 5794 5794 5793 5793 5793 5792 5792 5791 5791 5791 5791 5792 5792 5792 5792 5792 5792 5792 5793 5793 5794 5794 5794 5794 5795 5795 5795
5789 5790 5791 5793 5795 5794 5793 5794 5794 5795 5794 5794 5794 5796 5791 5790 5789 5789 5788 5788 5788 5788 5787 5787 5786 5786 5786 5786 5787 5787 5787 5787 5787 5787 5788 5788 5788 5788 5789 5789 5789 5789 5789 5789
5782 5783 5785 5787 5788 5787 5787 5787 5787 5788 5788 5788 5788 5788 5786 5784 5784 5783 5782 5782 5782 5782 5782 5781 5781 5780 5780 5780 5781 5781 5781 5782 5782 5782 5782 5782 5782 5783 5783 5783 5783 5783 5782 5782
5774 5776 5777 5778 5779 5780 5780 5780 5781 5781 5781 5781 5781 5780 5780 5779 5778 5777 5777 5777 5777 5776 5776 5775 5775 5774 5774 5775 5775 5775 5776 5776 5776 5777 5777 5777 5777 5777 5777 5777 5777 5776 5776 5775
5766 5768 5769 5770 5771 5772 5772 5773 5774 5774 5774 5774 5774 5774 5774 5773 5772 5771 5771 5770 5770 5770 5770 5769 5769 5769 5769 5769 5769 5770 5770 5771 5771 5771 5771 5771 5771 5771 5771 5770 5770 5770 5769 5769
5759 5760 5761 5763 5764 5764 5765 5766 5766 5767 5767 5767 5767 5768 5767 5766 5766 5765 5765 5764 5764 5764 5764 5763 5763 5763 5763 5764 5764 5765 5765 5766 5766 5766 5766 5765 5765 5765 5765 5764 5763 5763 5762 5762
5752 5752 5753 5755 5757 5757 5760 5759 5759 5759 5759 5760 5759 5760 5760 5760 5760 5759 5759 5758 5758 5758 5757 5758 5758 5758 5758 5759 5759 5760 5760 5760 5760 5760 5760 5759 5759 5759 5758 5758 5757 5757 5756 5756
5744 5745 5746 5748 5749 5750 5751 5751 5752 5752 5752 5752 5752 5753 5753 5753 5753 5753 5752 5752 5752 5752 5752 5752 5753 5753 5753 5754 5754 5754 5754 5754 5755 5754 5754 5753 5753 5752 5752 5751 5750 5750 5750 5749
5737 5738 5739 5740 5741 5742 5744 5745 5744 5746 5744 5745 5745 5746 5746 5746 5747 5747 5746 5746 5746 5746 5747 5747 5747 5748 5748 5748 5748 5748 5748 5748 5748 5748 5748 5747 5746 5746 5745 5745 5744 5744 5743 5743
5729 5730 5731 5732 5733 5733 5736 5737 5738 5739 5739 5738 5738 5738 5738 5739 5740 5740 5740 5739 5740 5740 5741 5741 5742 5742 5742 5743 5743 5742 5742 5742 5742 5741 5741 5740 5740 5739 5738 5738 5738 5737 5737 5736
5722 5723 5724 5725 5726 5728 5728 5729 5730 5730 5730 5730 5730 5731 5731 5731 5732 5732 5733 5733 5733 5734 5734 5735 5735 5736 5736 5736 5736 5736 5736 5735 5735 5735 5734 5734 5734 5733 5732 5732 5731 5730 5730 5729
5714 5715 5716 5718 5720 5719 5719 5720 5721 5721 5722 5722 5723 5723 5723 5724 5724 5725 5726 5726 5726 5727 5727 5728 5728 5729 5729 5729 5729 5729 5729 5728 5728 5728 5728 5727 5727 5726 5726 5725 5724 5724 5723 5723
5706 5707 5708 5709 5710 5711 5712 5712 5713 5713 5714 5714 5715 5715 5716 5716 5717 5717 5718 5719 5719 5720 5720 5721 5721 5721 5722 5722 5722 5722 5721 5721 5721 5721 5721 5720 5720 5719 5719 5719 5718 5717 5717 5716
5699 5700 5701 5702 5703 5704 5705 5705 5705 5706 5706 5706 5707 5707 5708 5708 5709 5710 5711 5711 5712 5713 5713 5714 5714 5715 5715 5714 5714 5714 5714 5713 5713 5713 5713 5713 5713 5712 5712 5712 5711 5710 5710 5708
5692 5693 5694 5695 5696 5696 5697 5697 5698 5698 5698 5699 5699 5699 5699 5700 5701 5702 5703 5703 5704 5705 5706 5706 5706 5706 5706 5707 5707 5706 5706 5706 5706 5706 5706 5705 5705 5705 5705 5704 5704 5703 5702 5701